DW8569 Weather Reports


Display with metric or nautical units.
time (UTC)temp
F
wind
direction
speed
MPH
gust
MPH
rain 1hr
in
rain 24hr
in
rain mn
in
humidity
%
barometer
mb
20260510213019 90 312 0.0 0.0 0.00 0.28 0.12 46 1012.4
20260510211518 90 312 0.0 0.0 0.00 0.28 0.12 46 1012.2
20260510210021 89 312 0.0 0.0 0.00 0.28 0.12 46 1012.1
20260510204517 89 313 0.0 0.0 0.00 0.28 0.12 46 1012.1
20260510203016 89 312 0.0 2.0 0.00 0.28 0.12 46 1011.9
20260510201516 90 312 0.0 2.0 0.00 0.28 0.12 46 1011.9
20260510200016 91 296 0.0 1.0 0.03 0.28 0.12 46 1012.0
20260510194522 89 297 0.0 1.0 0.12 0.28 0.12 46 1012.1
20260510193015 86 296 0.0 1.0 0.12 0.28 0.12 46 1012.3
20260510191514 80 298 0.0 1.0 0.12 0.28 0.12 46 1012.2
20260510190014 70 298 0.0 2.0 0.08 0.25 0.08 46 1012.2
20260510184524 68 299 0.0 4.0 0.00 0.22 0.00 46 1012.1
20260510183007 70 298 0.0 3.0 0.00 0.22 0.00 46 1012.2
20260510181506 71 297 0.0 2.0 0.00 0.22 0.00 46 1012.3
20260510180005 71 298 0.0 2.0 0.00 0.22 0.00 46 1012.4
20260510174502 72 297 0.0 3.0 0.00 0.22 0.00 46 1012.3
20260510173109 72 300 0.0 1.0 0.00 0.22 0.00 46 1012.3
20260510171559 84 300 0.0 2.0 0.00 0.22 0.00 46 1012.3
20260510170059 96 302 0.0 1.0 0.00 0.22 0.00 46 1012.4
20260510164554 93 302 0.0 1.0 0.00 0.22 0.00 46 1012.5
20260510163049 88 302 0.0 3.0 0.00 0.22 0.00 46 1012.7
20260510161545 86 200 0.0 1.0 0.00 0.22 0.00 46 1012.8
20260510160057 85 199 0.0 1.0 0.00 0.22 0.00 46 1012.9
20260510154539 83 196 0.0 1.0 0.00 0.22 0.00 46 1012.9
20260510153038 82 143 0.0 0.0 0.00 0.22 0.00 46 1013.1
20260510151534 81 143 0.0 0.0 0.00 0.22 0.00 46 1012.9
20260510150030 80 140 0.0 0.0 0.00 0.22 0.00 46 1013.0
20260510144528 79 140 0.0 0.0 0.00 0.22 0.00 46 1013.0
20260510143030 79 140 0.0 0.0 0.00 0.22 0.00 46 1012.9
20260510141524 79 140 0.0 1.0 0.00 0.22 0.00 46 1013.0
20260510140022 79 140 0.0 0.0 0.00 0.22 0.00 46 1012.8
20260510134523 79 140 0.0 0.0 0.00 0.22 0.00 46 1012.8
20260510133021 78 136 0.0 0.0 0.00 0.22 0.00 46 1012.8
20260510131517 78 136 0.0 0.0 0.00 0.22 0.00 46 1012.7
20260510130016 78 136 0.0 0.0 0.00 0.22 0.00 46 1012.3
20260510124514 78 136 0.0 0.0 0.00 0.22 0.00 46 1012.2
20260510123014 78 136 0.0 0.0 0.00 0.22 0.00 46 1012.1
20260510121513 78 135 0.0 0.0 0.00 0.22 0.00 46 1012.2
20260510120014 78 129 0.0 0.0 0.00 0.22 0.00 46 1012.0
20260510114509 78 129 0.0 0.0 0.00 0.22 0.00 46 1011.8
20260510113007 78 129 0.0 0.0 0.00 0.22 0.00 46 1011.7
20260510111504 78 129 0.0 2.0 0.00 0.22 0.00 46 1011.5
20260510110011 78 129 0.0 0.0 0.00 0.22 0.00 46 1011.2
20260510104504 78 129 0.0 0.0 0.00 0.22 0.00 46 1011.1
20260510103003 78 129 0.0 0.0 0.00 0.22 0.00 46 1011.3
20260510101600 78 129 0.0 0.0 0.00 0.22 0.00 46 1011.0
20260510100059 78 129 0.0 0.0 0.00 0.22 0.00 46 1011.2
20260510094558 78 129 0.0 0.0 0.00 0.22 0.00 46 1011.0
20260510093111 77 129 0.0 0.0 0.00 0.22 0.00 46 1011.1
20260510091557 77 129 0.0 0.0 0.00 0.22 0.00 46 1011.4
20260510090115 77 129 0.0 0.0 0.00 0.22 0.00 46 1011.4
20260510084554 77 129 0.0 0.0 0.00 0.22 0.00 46 1011.0
20260510083109 77 129 0.0 0.0 0.00 0.22 0.00 46 1010.8
20260510081607 77 129 0.0 0.0 0.00 0.22 0.00 46 1010.9
20260510080055 77 129 0.0 0.0 0.00 0.22 0.00 46 1010.7
20260510074554 77 129 0.0 0.0 0.00 0.22 0.00 46 1010.6
20260510073052 76 129 0.0 0.0 0.00 0.22 0.00 46 1010.5
20260510071550 76 129 0.0 0.0 0.00 0.22 0.00 46 1010.5
20260510070049 76 129 0.0 0.0 0.00 0.22 0.00 46 1010.4
20260510064601 76 129 0.0 0.0 0.00 0.22 0.00 46 1010.3
20260510063049 76 129 0.0 0.0 0.00 0.22 0.00 46 1010.2
20260510061547 76 129 0.0 0.0 0.00 0.22 0.00 46 1010.2
20260510060046 76 129 0.0 0.0 0.00 0.22 0.00 46 1010.3
20260510054544 76 129 0.0 0.0 0.00 0.22 0.00 46 1010.4
20260510053042 77 129 0.0 0.0 0.00 0.22 0.00 46 1010.4
20260510051540 77 129 0.0 0.0 0.00 0.22 0.00 46 1010.5
20260510050039 77 129 0.0 0.0 0.00 0.22 0.00 46 1010.5
20260510044551 78 129 0.0 0.0 0.00 0.22 0.00 46 1010.6
20260510043035 78 129 0.0 0.0 0.00 0.22 0.00 46 1010.7
20260510041533 78 129 0.0 0.0 0.00 0.22 0.00 46 1010.6
20260510040029 79 129 0.0 0.0 0.00 0.22 0.00 46 1010.5
20260510034530 79 129 0.0 0.0 0.00 0.22 0.22 46 1010.3
20260510033029 79 129 0.0 0.0 0.00 0.22 0.22 46 1010.3
20260510031529 80 129 0.0 0.0 0.00 0.22 0.22 46 1010.4
20260510030036 80 129 0.0 0.0 0.00 0.22 0.22 46 1010.3
20260510024528 80 129 0.0 0.0 0.00 0.22 0.22 46 1010.3
20260510023028 81 129 0.0 0.0 0.00 0.22 0.22 46 1010.2
20260510021529 81 129 0.0 0.0 0.00 0.22 0.22 46 1010.3
20260510020029 81 129 0.0 0.0 0.00 0.22 0.22 46 1010.4
20260510014528 81 129 0.0 0.0 0.00 0.22 0.22 46 1010.3
20260510013026 81 129 0.0 0.0 0.00 0.22 0.22 46 1010.2
20260510011525 81 129 0.0 0.0 0.00 0.22 0.22 46 1010.0
20260510010025 82 129 0.0 0.0 0.00 0.22 0.22 46 1009.9
20260510004524 82 129 0.0 0.0 0.00 0.22 0.22 46 1009.8
20260510003027 82 129 0.0 0.0 0.00 0.22 0.22 46 1009.8
20260510001523 82 129 0.0 0.0 0.00 0.22 0.22 46 1009.9
20260510000023 83 129 0.0 0.0 0.00 0.22 0.22 46 1009.6
20260509234523 83 129 0.0 0.0 0.00 0.22 0.22 46 1009.6
20260509233025 83 129 0.0 0.0 0.00 0.22 0.22 46 1009.3
20260509231521 83 129 0.0 0.0 0.02 0.22 0.22 46 1009.4
20260509230020 82 129 0.0 1.0 0.07 0.22 0.22 46 1009.6
20260509224521 82 128 0.0 0.0 0.12 0.22 0.22 46 1009.8
20260509223020 80 128 0.0 1.0 0.17 0.22 0.22 46 1010.1
20260509221519 77 128 0.0 0.0 0.15 0.20 0.20 46 1010.1
20260509220018 76 128 0.0 0.0 0.10 0.15 0.15 46 1010.6
20260509214518 76 128 0.0 1.0 0.05 0.10 0.10 46 1010.3